Location: Newark
(25.4800°N, 85.7200°E)
Time: 11:10:26
(UTC+00:00)

Explorer 11/Cluster Stage 4 - Pass Details

Date: 25 August 2019
Orbit: 467 x 1260 km, 28.8° (Epoch: 23 September)

Event Time Altitude Azimuth Distance (km) Brightness Sun altitude
Rises 07:43:05 0° 283° (WNW) 4,201 10.5 65.4°
Reaches altitude 10° 07:46:05 10° 284° (WNW) 3,226 10.1 64.8°
Maximum altitude 07:54:21 87° 15° (NNE) 1,184 8.8 63.2°
Drops below altitude 10° 08:01:38 10° 104° (ESE) 2,864 9.4 61.7°
Sets 08:04:09 0° 104° (ESE) 3,711 9.8 61.2°
